Home   Weather   Lofoten   Past weeks
Flag for Norway

Past Weather in Lofoten, Norway — September 2017

Now
50 °F

Sunny.


Feels Like: 50 °F
Forecast: 51 / 47 °F
Wind: 2 mph from North

Location: Leknes

Current Time: Jun 17, 2019 at 6:54:11 am

Latest Report: Jun 17, 2019 at 5:50 am


Visibility: 10 mi

Pressure: 29.80 "Hg

Humidity: 88%

Dew Point: 46 °F

Location of LofotenLocation

September 2017 Weather in Lofoten — Graph

°F

High & Low Weather Summary for September 2017

 TemperatureHumidityPressure
High68 °F (Sep 30, 11:50 am)100% (Sep 11, 6:20 am)30.66 "Hg (Sep 11, 6:20 am)
Low41 °F (Sep 27, 7:50 am)33% (Sep 30, 11:50 am)29.15 "Hg (Sep 11, 4:50 am)
Average54 °F70%29.98 "Hg
* Reported Sep 1 4:59 am — Sep 30 2:20 pm, Lofoten. Weather by CustomWeather, © 2019

Note: Actual official high and low records may vary slightly from our data, if they occured in-between our weather recording intervals... More about our weather records

Advertising

Lofoten Weather History for September 1, 2017

Scroll right to see more
 ConditionsComfort  
Time TempWeatherWind HumidityBarometerVisibility
4:59 am
Fri, Sep 1
46 °FPassing clouds.8 mph93%29.77 "HgN/A
5:20 am46 °FPartly cloudy.8 mph93%29.77 "HgN/A
5:50 am48 °FBroken clouds.7 mph87%29.77 "HgN/A
6:20 am46 °FBroken clouds.7 mph87%29.77 "HgN/A
6:50 am46 °FBroken clouds.7 mph87%29.80 "HgN/A
7:20 am48 °FBroken clouds.7 mph82%29.80 "HgN/A
7:50 am48 °FPartly sunny.6 mph87%29.80 "HgN/A
8:20 am52 °FPartly sunny.6 mph77%29.80 "HgN/A
8:50 am52 °FPartly sunny.3 mph72%29.80 "HgN/A
9:20 am52 °FBroken clouds.3 mph77%29.80 "HgN/A
10:20 am54 °FBroken clouds.5 mph67%29.80 "HgN/A
10:50 am54 °FBroken clouds.5 mph67%29.83 "HgN/A
11:20 am55 °FBroken clouds.3 mph63%29.83 "HgN/A
12:20 pm54 °FBroken clouds.6 mph72%29.83 "HgN/A
12:50 pm54 °FScattered showers. Broken clouds.7 mph67%29.83 "HgN/A
1:20 pm54 °FBroken clouds.5 mph67%29.83 "HgN/A
1:50 pm54 °FPartly sunny.8 mph72%29.86 "HgN/A
2:50 pm55 °FBroken clouds.8 mph63%29.86 "HgN/A
3:20 pm55 °FBroken clouds.10 mph59%29.86 "HgN/A
4:20 pm55 °FScattered clouds.10 mph59%29.86 "HgN/A
4:50 pm54 °FBroken clouds.12 mph67%29.89 "HgN/A
5:20 pm54 °FBroken clouds.9 mph67%29.89 "HgN/A
6:20 pm52 °FPartly sunny.9 mph77%29.89 "HgN/A
6:50 pm52 °FPartly sunny.9 mph77%29.92 "HgN/A
7:50 pm50 °FPartly sunny.5 mph76%29.92 "HgN/A
8:20 pm50 °FPartly sunny.5 mph76%29.92 "HgN/A
8:50 pm48 °FPassing clouds.5 mph82%29.92 "HgN/A
9:20 pm48 °FPassing clouds.5 mph76%29.95 "HgN/A
9:50 pm46 °FPassing clouds.1 mph87%29.95 "HgN/A
Weather by CustomWeather, © 2019

See weather overview